When you browse on this site, cookies collect data to enhance your experience and personalize the content and advertising you see.
Visit our Privacy Policy to learn more. By continuing to use the site, you agree to this use of cookies and data.
  • In Hungary
  • List of Countries
  • For 7 days
  • Water Temperature
  • Satellite Maps
  • Weather Map
  • News
  • Weather Widgets
  • user-avatar
    Login

    Hourly Weather Strzegow

    Today, 19 December, Wednesday

    Time Temperature Precipitation Wind Pressure Humidity
    00:00 -2°C° 0 mm 3 mps 749 mmHg 90%
    01:00 -2°C° 0 mm 3 mps 749 mmHg 90%
    02:00 -2°C° 0 mm 3 mps 749 mmHg 90%
    03:00 -2°C° 0 mm 3 mps 748 mmHg 89%
    04:00 -2°C° 0 mm 3 mps 748 mmHg 89%
    05:00 -2°C° 0 mm 3 mps 748 mmHg 89%
    06:00 -2°C° 0 mm 3 mps 747 mmHg 88%
    07:00 -4°C° 0 mm 3 mps 747 mmHg 88%
    08:00 -3°C° 0 mm 4 mps 747 mmHg 85%
    09:00 -2°C° 0 mm 4 mps 747 mmHg 81%
    10:00 -2°C° 0 mm 4 mps 747 mmHg 78%
    11:00 -1°C° 0 mm 4 mps 746 mmHg 76%
    12:00 -1°C° 0 mm 4 mps 746 mmHg 74%
    13:00 0°C° 0 mm 5 mps 746 mmHg 72%
    14:00 -1°C° 0 mm 4 mps 746 mmHg 74%
    15:00 -1°C° 0 mm 4 mps 745 mmHg 75%
    16:00 -2°C° 0 mm 4 mps 745 mmHg 76%
    17:00 -2°C° 0 mm 4 mps 745 mmHg 76%
    18:00 -2°C° 0 mm 4 mps 745 mmHg 77%
    19:00 -3°C° 0 mm 4 mps 745 mmHg 77%
    20:00 -2°C° 0 mm 4 mps 745 mmHg 76%
    21:00 -2°C° 0 mm 4 mps 744 mmHg 75%
    22:00 -2°C° 0 mm 4 mps 744 mmHg 75%
    23:00 -2°C° 0 mm 4 mps 744 mmHg 74%

    Tomorrow, 20 December, Thursday

    Time Temperature Precipitation Wind Pressure Humidity
    00:00 -2°C° 0 mm 4 mps 744 mmHg 73%
    01:00 -2°C° 0 mm 4 mps 744 mmHg 73%
    02:00 -2°C° 0 mm 3 mps 744 mmHg 73%
    03:00 -2°C° 0 mm 3 mps 744 mmHg 74%
    04:00 -2°C° 0 mm 3 mps 744 mmHg 75%
    05:00 -2°C° 0 mm 3 mps 744 mmHg 76%
    06:00 -4°C° 0 mm 3 mps 744 mmHg 77%
    07:00 -4°C° 0 mm 4 mps 744 mmHg 78%
    08:00 -4°C° 0 mm 4 mps 744 mmHg 77%
    09:00 -3°C° 0 mm 4 mps 744 mmHg 75%
    10:00 -3°C° 0 mm 4 mps 744 mmHg 74%
    11:00 -3°C° 0 mm 4 mps 744 mmHg 75%
    12:00 -2°C° 0 mm 4 mps 744 mmHg 75%
    13:00 -1°C° 0 mm 3 mps 743 mmHg 76%
    14:00 -1°C° 0.2 mm 3 mps 744 mmHg 79%
    15:00 -1°C° 0.2 mm 3 mps 744 mmHg 82%
    16:00 -1°C° 0.2 mm 3 mps 744 mmHg 85%
    17:00 -1°C° 0.1 mm 3 mps 744 mmHg 85%
    18:00 -1°C° 0.1 mm 4 mps 744 mmHg 86%
    19:00 -1°C° 0.1 mm 4 mps 744 mmHg 87%
    20:00 -1°C° 0 mm 4 mps 744 mmHg 87%
    21:00 -1°C° 0 mm 4 mps 744 mmHg 87%
    22:00 -1°C° 0 mm 4 mps 744 mmHg 88%
    23:00 -1°C° 0 mm 4 mps 744 mmHg 88%

    Day after tomorrow, 21 December, Friday

    Time Temperature Precipitation Wind Pressure Humidity
    00:00 -1°C° 0 mm 4 mps 744 mmHg 88%
    01:00 -1°C° 0 mm 4 mps 744 mmHg 89%
    02:00 0°C° 0 mm 4 mps 744 mmHg 89%
    03:00 0°C° 0 mm 4 mps 744 mmHg 89%
    04:00 0°C° 0 mm 4 mps 744 mmHg 88%
    05:00 0°C° 0 mm 4 mps 744 mmHg 88%
    06:00 0°C° 0 mm 4 mps 743 mmHg 88%
    07:00 0°C° 0 mm 5 mps 743 mmHg 88%
    08:00 0°C° 0 mm 5 mps 743 mmHg 87%
    09:00 +1°C° 0 mm 5 mps 743 mmHg 86%
    10:00 +1°C° 0 mm 5 mps 743 mmHg 85%
    11:00 +1°C° 0.1 mm 5 mps 742 mmHg 85%
    12:00 +1°C° 0.1 mm 5 mps 741 mmHg 84%
    13:00 +2°C° 0.1 mm 5 mps 741 mmHg 84%
    14:00 +1°C° 0.4 mm 5 mps 740 mmHg 84%
    15:00 +1°C° 0.4 mm 5 mps 740 mmHg 84%
    16:00 +1°C° 0.4 mm 5 mps 739 mmHg 85%
    17:00 +1°C° 0.7 mm 6 mps 738 mmHg 84%
    18:00 +1°C° 0.7 mm 6 mps 738 mmHg 84%
    19:00 0°C° 0.7 mm 7 mps 737 mmHg 84%
    20:00 +2°C° 0.6 mm 7 mps 737 mmHg 84%
    21:00 +3°C° 0.6 mm 7 mps 736 mmHg 84%
    22:00 +4°C° 0.6 mm 8 mps 736 mmHg 85%
    23:00 +4°C° 0.1 mm 7 mps 736 mmHg 86%

    22 December, Saturday

    Time Temperature Precipitation Wind Pressure Humidity
    00:00 +4°C° 0.1 mm 7 mps 736 mmHg 87%
    01:00 +5°C° 0.1 mm 6 mps 736 mmHg 88%
    02:00 +4°C° 0 mm 6 mps 736 mmHg 87%
    03:00 +3°C° 0 mm 5 mps 737 mmHg 85%
    04:00 +3°C° 0 mm 5 mps 737 mmHg 84%
    05:00 +3°C° 0 mm 5 mps 737 mmHg 84%
    06:00 +2°C° 0 mm 5 mps 737 mmHg 84%
    07:00 +2°C° 0 mm 5 mps 738 mmHg 83%
    08:00 +3°C° 0 mm 5 mps 738 mmHg 83%
    09:00 +3°C° 0 mm 5 mps 738 mmHg 83%
    10:00 +5°C° 0 mm 5 mps 738 mmHg 83%
    11:00 +5°C° 0.1 mm 5 mps 737 mmHg 84%
    12:00 +6°C° 0.1 mm 5 mps 736 mmHg 84%
    13:00 +7°C° 0.1 mm 5 mps 736 mmHg 84%
    14:00 +7°C° 0.3 mm 6 mps 735 mmHg 84%
    15:00 +6°C° 0.3 mm 7 mps 735 mmHg 85%
    16:00 +6°C° 0.3 mm 7 mps 735 mmHg 85%
    17:00 +5°C° 0 mm 7 mps 735 mmHg 83%
    18:00 +5°C° 0 mm 7 mps 735 mmHg 81%
    19:00 +4°C° 0 mm 7 mps 736 mmHg 79%
    20:00 +4°C° 0 mm 7 mps 736 mmHg 79%
    21:00 +4°C° 0 mm 7 mps 737 mmHg 80%
    22:00 +4°C° 0 mm 7 mps 737 mmHg 80%
    23:00 +4°C° 0 mm 7 mps 738 mmHg 81%

    23 December, Sunday

    Time Temperature Precipitation Wind Pressure Humidity
    00:00 +4°C° 0 mm 6 mps 738 mmHg 81%
    01:00 +3°C° 0 mm 6 mps 739 mmHg 82%
    02:00 +3°C° 0.1 mm 6 mps 739 mmHg 82%
    03:00 +3°C° 0.1 mm 6 mps 739 mmHg 82%
    04:00 +3°C° 0.1 mm 6 mps 740 mmHg 82%
    05:00 +3°C° 0 mm 6 mps 740 mmHg 82%
    06:00 +3°C° 0 mm 6 mps 740 mmHg 82%
    07:00 +3°C° 0 mm 6 mps 741 mmHg 83%
    08:00 +3°C° 0 mm 6 mps 741 mmHg 81%
    09:00 +3°C° 0 mm 6 mps 741 mmHg 80%
    10:00 +4°C° 0 mm 7 mps 742 mmHg 78%
    11:00 +4°C° 0 mm 7 mps 742 mmHg 76%
    12:00 +4°C° 0 mm 7 mps 742 mmHg 74%
    13:00 +4°C° 0 mm 7 mps 742 mmHg 73%
    14:00 +4°C° 0 mm 6 mps 742 mmHg 75%
    15:00 +5°C° 0 mm 5 mps 742 mmHg 77%
    16:00 +3°C° 0 mm 5 mps 742 mmHg 79%
    17:00 +3°C° 0 mm 5 mps 742 mmHg 80%
    18:00 +3°C° 0 mm 5 mps 742 mmHg 81%
    19:00 +2°C° 0 mm 5 mps 743 mmHg 81%
    20:00 +2°C° 0 mm 5 mps 743 mmHg 81%
    21:00 +2°C° 0 mm 5 mps 743 mmHg 81%
    22:00 +2°C° 0 mm 5 mps 743 mmHg 81%
    23:00 +2°C° 0 mm 5 mps 743 mmHg 82%

    24 December, Monday

    Time Temperature Precipitation Wind Pressure Humidity
    00:00 +2°C° 0 mm 5 mps 743 mmHg 83%
    01:00 +2°C° 0 mm 5 mps 743 mmHg 84%
    02:00 +1°C° 0 mm 4 mps 744 mmHg 85%
    03:00 +1°C° 0 mm 4 mps 744 mmHg 86%
    04:00 +1°C° 0 mm 4 mps 744 mmHg 87%
    05:00 +2°C° 0 mm 3 mps 744 mmHg 87%
    06:00 +2°C° 0 mm 3 mps 744 mmHg 88%
    07:00 +2°C° 0 mm 3 mps 744 mmHg 89%
    08:00 +2°C° 0.1 mm 3 mps 744 mmHg 88%
    09:00 +2°C° 0.1 mm 3 mps 745 mmHg 86%
    10:00 +3°C° 0.1 mm 3 mps 745 mmHg 85%
    11:00 +3°C° 0.1 mm 3 mps 745 mmHg 84%
    12:00 +4°C° 0.1 mm 3 mps 744 mmHg 82%
    13:00 +4°C° 0.1 mm 3 mps 744 mmHg 80%
    14:00 +3°C° 0.1 mm 3 mps 744 mmHg 83%
    15:00 +3°C° 0.1 mm 3 mps 745 mmHg 85%
    16:00 +3°C° 0.1 mm 2 mps 745 mmHg 87%
    17:00 +3°C° 0 mm 2 mps 745 mmHg 88%
    18:00 +3°C° 0 mm 2 mps 745 mmHg 89%
    19:00 +3°C° 0 mm 2 mps 745 mmHg 90%
    20:00 +3°C° 0 mm 2 mps 745 mmHg 89%
    21:00 +2°C° 0 mm 2 mps 746 mmHg 89%
    22:00 +2°C° 0 mm 2 mps 746 mmHg 89%
    23:00 +2°C° 0 mm 2 mps 745 mmHg 89%
    Show more